sat.trackr.live / text

‹ back to catalog

STARLINK-5337

NORAD 55284 · 2023-010R

PAYLOAD ACTIVE UNKNOWN

§ Identity

Operator
Country
US
Launch date
2023-01-19
Launch site
AFWTR
Launch vehicle
Mass (kg)
RCS (m²)

Purposes: comms

External: N2YO · Heavens-Above · Gunter

§ Orbital elements

Epoch: 2026-05-25T03:40:58.480032Z

Period
96.08 min
Inclination
69.9987°
Eccentricity
0.0004222
Mean motion
14.98762271 rev/d
Perigee alt
567.8 km
Apogee alt
573.7 km
Semi-major
6,948.9 km
B*
1.5163e-2
RAAN
211.4879°
Arg perigee
262.6315°
Mean anomaly
97.4364°
Rev number
18,422

§ Raw data

STARLINK-53371 55284U 23010R   26145.15345463  .00187856  00000+0  15163-1 0  99902 55284  69.9987 211.4879 0004222 262.6315  97.4364 14.98762271184228

JSON: /api/v1/satellites/55284 · /tle

For live sub-satellite position, see the globe view (requires WebGL).

§ Visibility from observer

Set your observer location to see the next 7 days of passes ≥ 10°. The values pass through the URL so the page stays shareable.

No JS? Fill the form by hand. The geolocation button needs JavaScript.